This is the latest recevied weather packets stored in our database for station/object KB3UMW-13. If no packets are shown the sender has not sent any weather packets the latest 10 day(s).
| Time | Temp. | Humidity | Pressure | Rain* | Wind** | Luminosity | Snow |
|---|---|---|---|---|---|---|---|
| 1777989796 | 18.89° C | 54% | 1013 hPa | 0 mm | - | 310 W/m² | - |
| 1777989494 | 18.89° C | 57% | 1012.6 hPa | 0 mm | - | 606 W/m² | - |
| 1777989189 | 18.89° C | 57% | 1012.5 hPa | 0 mm | - | 302 W/m² | - |
| 1777988886 | 19.44° C | 56% | 1012.7 hPa | 0 mm | - | 581 W/m² | - |
| 1777988583 | 19.44° C | 56% | 1012.7 hPa | 0 mm | - | 609 W/m² | - |
| 1777988279 | 20° C | 55% | 1012.7 hPa | 0 mm | - | 550 W/m² | - |
| 1777987976 | 20° C | 56% | 1012.4 hPa | 0 mm | - | 501 W/m² | - |
| 1777987672 | 18.89° C | 58% | 1012.5 hPa | 0 mm | - | 488 W/m² | - |
| 1777987369 | 18.33° C | 59% | 1012.5 hPa | 0 mm | - | 410 W/m² | - |
| 1777987067 | 17.78° C | 58% | 1012.4 hPa | 0 mm | - | 195 W/m² | - |
| 1777986764 | 17.78° C | 58% | 1012.1 hPa | 0 mm | - | 178 W/m² | - |
| 1777986461 | 17.78° C | 61% | 1012.6 hPa | 0 mm | - | 168 W/m² | - |
| 1777986160 | 17.22° C | 64% | 1012.4 hPa | 0 mm | - | 112 W/m² | - |
| 1777985856 | 16.67° C | 67% | 1012.6 hPa | 0 mm | - | 100 W/m² | - |
| 1777985554 | 16.11° C | 65% | 1012.6 hPa | 0 mm | - | 83 W/m² | - |
| 1777985250 | 16.11° C | 65% | 1012.9 hPa | 0 mm | - | 57 W/m² | - |
| 1777984947 | 16.67° C | 64% | 1012.8 hPa | 0 mm | - | 68 W/m² | - |
| 1777984643 | 16.67° C | 65% | 1012.7 hPa | 0 mm | - | 89 W/m² | - |
| 1777984340 | 16.11° C | 65% | 1012.7 hPa | 0 mm | - | 91 W/m² | - |
| 1777984036 | 15.56° C | 65% | 1012.8 hPa | 0 mm | - | 95 W/m² | - |
| 1777983734 | 15.56° C | 67% | 1012.7 hPa | 0 mm | - | 67 W/m² | - |
| 1777983430 | 15.56° C | 68% | 1012.6 hPa | 0 mm | - | 73 W/m² | - |
| 1777983127 | 15.56° C | 68% | 1012.9 hPa | 0 mm | - | 56 W/m² | - |
| 1777982823 | 15.56° C | 67% | 1012.8 hPa | 0 mm | - | 67 W/m² | - |
| 1777982520 | 15.56° C | 68% | 1012.7 hPa | 0 mm | - | 95 W/m² | - |
* Rain latest hour (hover to see other rain measurements)
** Current wind speed in m/s (hover to see current wind gust speed)